Find Starlink 35103

NORAD ID: 65633 Int'l Des: 2025-210 Owner: SPXS Country: US Constellation: starlink operational
LEOCIRCULAR

現在のビュー

3D地球を読み込み中...

About Starlink 35103

Starlink 35103 (NORAD 65633) is a starlink constellation satellite (v2 mini) launched Sep 18, 2025 by SPXS of US. It operates in LEO, CIRCULAR orbit with a mass of 575.00 kg.

次回通過

Passes for default location (London). Set your location on the main map for personalized predictions.

高度履歴

Loading altitude history...

軌道要素

1 65633U 25210M 26263.96928939 .00012535 00000-0 38165-3 0 9999
2 65633 53.1582 115.4636 0001404 83.8921 276.2242 15.34388015 57695
Epoch: Sep 20, 2026 • Age: 17 hours

現在のステータス

高度 479.2 km
遠地点 / 近地点 N/A
速度 7.63 km/s
衛星直下点 -46.07°S, 178.23°E
打ち上げ日 Sep 18, 2025
運用期間 1 year
タイプ internet

技術仕様

分類 Payload
質量 575.00 kg
乾燥質量 530.00 kg
長さ 0.30 m
スパン 29.00 m
形状 ? Box + pan
製造者 SPXS
バスタイプ Starlink V2MO
フェーズステータス In Orbit
所有者/国 SPXS/US

Most Searched